Location: Observatory Park - Geauga Park District
(41.5832°N, 81.0716°W)
Time: 17:33:55
(UTC-04:00)

ISS - Visible Passes

Search period start: 03 October 2023 00:00
Search period end: 13 October 2023 00:00
Orbit: 414 x 421 km, 51.6° (Epoch: 03 October)

Date Brightness Start Highest point End Pass type
(mag) Time Alt. Az. Time Alt. Az. Time Alt. Az.
03 Oct -3.8 19:30:22 10° NW 19:33:43 86° NE 19:37:03 10° SE visible
03 Oct -0.8 21:09:00 10° WSW 21:09:59 11° SW 21:10:50 10° SW visible
04 Oct -1.3 20:19:35 10° W 20:22:02 19° SW 20:24:28 10° S visible
05 Oct -2.0 19:30:56 10° WNW 19:33:58 32° SW 19:36:59 10° SSE visible
07 Oct -0.6 19:32:34 10° WSW 19:33:50 12° SW 19:35:05 10° SSW visible
